[[{"header":{"parameterUnit":"m.s-1","parameterCategory":1,"la1":30.2991,"la2":30.254,"lo1":-89.0895,"lo2":-89.0444,"dy":0.0017,"dx":0.0017,"nx":28,"ny":28,"refTime":"2024-08-12T09:00:00:Z","depth":0,"parameterNumber":2,"parameterNumberName":"U-component_of_WINDS"},"data":[0,0,0,0,0,0,0,0,0,0,0,0,0,0,0,0,0,0,0,0,0,0,0,0,0,0,0,0,0,0,0,0,0,0,0,0,0,0,0,0,0,0,0,0,0,0,0,0,0,0,0,0,0,0,0,0,0,0,3.8257,3.8258,0,3.8426,3.8428,3.843,3.8393,3.839,3.8387,3.8384,3.856,3.8567,3.8575,0,0,0,0,0,0,0,0,0,0,0,0,0,3.7903,3.791,3.8256,3.8258,3.8261,3.8426,3.8428,3.843,3.8394,3.839,3.8386,3.8382,3.8557,3.8566,3.8575,0,0,0,0,0,0,0,0,0,0,0,0,0,3.8063,3.7912,3.8256,3.8262,3.8264,3.8425,3.8428,3.8431,3.8394,3.839,3.8385,3.8381,3.8554,3.8565,3.8577,3.8742,0,0,3.8612,3.8617,0,0,0,0,0,0,0,0,3.8054,3.8076,3.8259,3.8262,3.8265,3.8383,3.8368,3.8535,3.8396,3.8345,3.8384,3.8378,3.8505,3.852,3.8563,3.8751,3.8758,3.8613,3.862,3.8624,3.8628,0,0,0,0,0,0,0,3.8043,3.8068,3.8323,3.8262,3.8265,3.8257,3.8275,3.8399,3.845,3.8349,3.8347,3.8367,3.8506,3.8552,3.8566,3.8761,3.8612,3.8622,3.863,3.8634,3.9093,3.9098,0,0,0,0,0,0,3.8029,3.8059,3.8318,3.8329,3.8145,3.8267,3.8287,3.835,3.8448,3.8459,3.8371,3.8365,3.8534,3.8553,3.8572,3.8773,3.8624,3.8635,3.8642,3.9088,3.9094,3.91,0,0,0,0,0,0,3.8021,3.8052,3.8311,3.8193,3.8226,3.8278,3.835,3.8356,3.8402,3.8465,3.8474,3.8409,3.8531,3.8556,3.87,3.8778,3.864,3.8651,3.9081,3.909,3.9097,3.9174,0,0,0,0,0,0,3.8011,3.805,3.8113,3.8195,3.8232,3.8436,3.8355,3.8363,3.8421,3.8415,3.8502,3.8512,3.853,3.8683,3.8711,3.8791,3.866,3.9075,3.9085,3.9094,3.9165,3.9184,3.92,0,0,0,0,0,3.7999,3.8129,3.8116,3.8148,3.8312,3.844,3.8462,3.8478,3.8428,3.8492,3.8532,3.851,3.8765,3.8698,3.873,3.8814,3.907,3.9082,3.9094,3.9157,3.918,3.92,0,0,0,0,0,0,3.8056,3.814,3.8127,3.8287,3.8357,3.8434,3.8515,3.8502,3.8588,3.8578,3.8596,3.8616,3.8762,3.8803,3.8727,3.898,3.891,3.8929,3.8948,3.897,3.8988,3.8975,3.8669,0,0,0,0,0,3.8086,3.8183,3.8251,3.8386,3.8422,3.8463,3.8519,3.8525,3.8599,3.8628,3.8679,3.8752,3.8848,3.8912,3.9004,3.9171,3.9189,3.9245,3.9262,3.9276,3.9292,3.9383,3.9409,3.9139,3.9139,3.9139,0,0,3.8152,3.821,3.827,3.8399,3.8454,3.8554,3.8488,3.8596,3.8671,3.8645,3.8784,3.8824,3.8906,3.9062,3.9133,3.91,3.9371,3.9291,3.9302,3.9311,3.9398,3.9424,3.9446,3.9147,3.9146,3.9145,0,0,3.8321,3.8375,3.8493,3.8549,3.8632,3.8658,3.8687,3.8766,3.8791,3.893,3.8913,3.9002,3.9168,3.9227,3.9279,3.9471,3.9453,3.95,3.9592,3.9681,3.9702,3.9721,3.9789,3.9813,3.9516,3.9516,3.9516,0,3.8392,3.8541,3.8555,3.8666,3.8723,3.8703,3.8823,3.8877,3.8986,3.9027,3.8988,3.9195,3.9249,3.9419,3.9465,3.9508,3.9541,3.949,3.9697,3.9717,3.9734,3.98,3.9825,3.9522,3.9521,3.952,3.952,0,3.8624,3.8728,3.8813,3.8919,3.8986,3.91,3.9131,3.9198,3.9198,3.9229,3.9371,3.9435,3.9539,3.958,3.9582,3.975,3.9727,3.9693,3.9623,3.9765,3.9827,3.9852,3.9529,3.9527,3.9526,3.9524,0,0,3.8835,3.8946,3.8977,3.9024,3.9114,3.9195,3.9309,3.941,3.9466,3.9543,3.9639,3.9779,3.9748,3.9807,3.9815,3.9893,4.004,3.985,3.9852,3.9883,4.0229,4.0254,4.0282,4.0029,4.0034,4.0038,4.0222,0,3.9013,3.9212,3.9227,3.9407,3.9503,3.9486,3.9584,3.9651,3.9682,3.9769,3.9804,3.9903,3.9854,3.989,3.9966,4.0006,4.011,3.9993,4.0119,4.0123,4.0098,4.0315,4.0341,4.0512,4.0246,4.025,4.0253,0,3.9247,3.9329,3.9518,3.9594,3.9635,3.9724,3.9818,3.99,3.9975,3.9993,4.0058,4.0056,4.0173,4.0099,4.0261,4.0181,4.0233,4.0261,4.0268,4.028,4.0196,4.0333,4.0567,4.0593,4.0291,4.0288,4.0285,0,3.9381,3.9539,3.9673,3.9714,3.9806,3.9869,3.991,3.998,4.004,4.0122,4.0161,4.0257,4.0309,4.0383,4.0407,4.0351,4.0568,4.0496,4.0586,4.0585,4.0632,4.0629,4.0878,4.0666,4.0666,4.0665,4.0665,0,3.9578,3.9695,3.9734,3.9816,3.9946,3.9963,4.0091,4.0129,4.0191,4.0281,4.0272,4.0356,4.0382,4.0471,4.0491,4.0622,4.0645,4.0663,4.0667,4.0664,4.0662,4.0698,4.0687,4.0672,4.0671,4.0669,4.0668,0,3.9751,3.9782,3.9926,4.0001,4.0022,4.0115,4.0179,4.0258,4.0288,4.0401,4.0429,4.0476,4.058,4.0611,4.0737,4.0749,4.0903,4.0896,4.0877,4.0877,4.0965,4.0957,4.1247,4.1286,4.1049,4.1051,4.1053,0,3.9874,3.9963,4.0047,4.0106,4.015,4.0245,4.0305,4.0325,4.0389,4.048,4.0549,4.0651,4.0734,4.0902,4.0948,4.1044,4.1039,4.1134,4.1054,4.1048,4.104,4.1035,4.1043,4.1149,4.1152,4.1154,4.1156,0,4.009,4.0101,4.0188,4.0281,4.0353,4.0428,4.0499,4.0548,4.0578,4.065,4.0756,4.082,4.0948,4.105,4.1148,4.1191,4.1179,4.1181,4.1206,4.1204,4.1189,4.1198,4.0918,4.1174,4.1172,4.1171,4.117,4.1169,4.0242,4.032,4.0391,4.0488,4.0544,4.0611,4.0688,4.0727,4.0815,4.092,4.0927,4.1041,4.1114,4.1243,4.1291,4.1382,4.1354,4.1392,4.1401,4.141,4.1417,4.1175,4.14,4.1399,4.1399,4.1398,4.1398,0,4.0457,4.0502,4.0591,4.0691,4.0767,4.0748,4.0826,4.0891,4.0992,4.106,4.1142,4.1263,4.1362,4.1415,4.1514,4.1576,4.1573,4.1601,4.1597,4.1607,4.1436,4.1404,4.1602,4.1602,4.1602,4.1602,4.1602,4.1602,4.0579,4.0709,4.0728,4.0886,4.093,4.1041,4.1087,4.1149,4.1203,4.1339,4.142,4.1454,4.1516,4.1619,4.1709,4.1722,4.1759,4.179,4.18,4.164,4.1619,4.1599,4.1569,4.1798,4.1799,4.1963,4.1965,4.1966]},{"header":{"parameterUnit":"m.s-1","parameterCategory":1,"la1":30.2991,"la2":30.254,"lo1":-89.0895,"lo2":-89.0444,"dy":0.0017,"dx":0.0017,"nx":28,"ny":28,"refTime":"2024-08-12T09:00:00:Z","depth":0,"parameterNumber":3,"parameterNumberName":"V-component_of_WINDS"},"data":[0,0,0,0,0,0,0,0,0,0,0,0,0,0,0,0,0,0,0,0,0,0,0,0,0,0,0,0,0,0,0,0,0,0,0,0,0,0,0,0,0,0,0,0,0,0,0,0,0,0,0,0,0,0,0,0,0,0,-0.4537,-0.4537,0,-0.4525,-0.4525,-0.4525,-0.4522,-0.4522,-0.4522,-0.4522,-0.4509,-0.4508,-0.4508,0,0,0,0,0,0,0,0,0,0,0,0,0,-0.4558,-0.4557,-0.4537,-0.4537,-0.4537,-0.4525,-0.4525,-0.4525,-0.4522,-0.4522,-0.4522,-0.4522,-0.4509,-0.4509,-0.4508,0,0,0,0,0,0,0,0,0,0,0,0,0,-0.4547,-0.4557,-0.4537,-0.4534,-0.4534,-0.4525,-0.4525,-0.4525,-0.4522,-0.4522,-0.4522,-0.4522,-0.4509,-0.4509,-0.4508,-0.4501,0,0,-0.4506,-0.4506,0,0,0,0,0,0,0,0,-0.4548,-0.4547,-0.4535,-0.4534,-0.4534,-0.4525,-0.4527,-0.4517,-0.4522,-0.4526,-0.4522,-0.4523,-0.4514,-0.4513,-0.4511,-0.4501,-0.45,-0.4506,-0.4505,-0.4505,-0.4505,0,0,0,0,0,0,0,-0.4549,-0.4547,-0.4532,-0.4535,-0.4534,-0.4533,-0.4532,-0.4525,-0.452,-0.4526,-0.4526,-0.4525,-0.4514,-0.4511,-0.451,-0.45,-0.4506,-0.4505,-0.4505,-0.4505,-0.4484,-0.4484,0,0,0,0,0,0,-0.455,-0.4548,-0.4533,-0.4532,-0.4542,-0.4533,-0.4531,-0.4528,-0.452,-0.4519,-0.4524,-0.4524,-0.4512,-0.4511,-0.451,-0.4501,-0.4505,-0.4505,-0.4504,-0.4484,-0.4484,-0.4484,0,0,0,0,0,0,-0.4551,-0.4549,-0.4533,-0.454,-0.4538,-0.4532,-0.4528,-0.4528,-0.4525,-0.4519,-0.4517,-0.4523,-0.4512,-0.4511,-0.4503,-0.4501,-0.4504,-0.4504,-0.4484,-0.4484,-0.4484,-0.4485,0,0,0,0,0,0,-0.4551,-0.4549,-0.4546,-0.454,-0.4538,-0.4527,-0.4528,-0.4527,-0.4524,-0.4524,-0.4517,-0.4515,-0.4512,-0.4504,-0.4503,-0.45,-0.4503,-0.4485,-0.4484,-0.4484,-0.4485,-0.4484,-0.4484,0,0,0,0,0,-0.4552,-0.4547,-0.4546,-0.4544,-0.4534,-0.4527,-0.4526,-0.4523,-0.4524,-0.4521,-0.4517,-0.4516,-0.4502,-0.4504,-0.4502,-0.4499,-0.4485,-0.4484,-0.4484,-0.4485,-0.4485,-0.4484,0,0,0,0,0,0,-0.4553,-0.4546,-0.4545,-0.4538,-0.4533,-0.4527,-0.4523,-0.4522,-0.4517,-0.4517,-0.4513,-0.4511,-0.4504,-0.4501,-0.4503,-0.4492,-0.4493,-0.4492,-0.4495,-0.4494,-0.4494,-0.4495,-0.4503,0,0,0,0,0,-0.4552,-0.4547,-0.4541,-0.4535,-0.4533,-0.4529,-0.4526,-0.4524,-0.4518,-0.4516,-0.4512,-0.4507,-0.4501,-0.4497,-0.4492,-0.4485,-0.4483,-0.4482,-0.4481,-0.4481,-0.448,-0.4476,-0.4476,-0.4483,-0.4483,-0.4483,0,0,-0.4551,-0.4546,-0.4543,-0.4536,-0.4532,-0.4527,-0.4527,-0.4521,-0.4518,-0.4515,-0.4508,-0.4505,-0.4499,-0.4492,-0.4488,-0.4489,-0.4478,-0.4481,-0.448,-0.448,-0.4476,-0.4475,-0.4475,-0.4482,-0.4483,-0.4483,0,0,-0.4545,-0.4542,-0.4536,-0.4533,-0.4527,-0.4524,-0.4523,-0.4517,-0.4515,-0.4508,-0.4506,-0.4501,-0.4492,-0.4488,-0.4484,-0.4478,-0.4477,-0.4477,-0.4475,-0.4471,-0.4471,-0.447,-0.4468,-0.4468,-0.4476,-0.4476,-0.4476,0,-0.4544,-0.4536,-0.4534,-0.4528,-0.4525,-0.4523,-0.4518,-0.4515,-0.4507,-0.4505,-0.4506,-0.4494,-0.449,-0.4482,-0.448,-0.4478,-0.4476,-0.4477,-0.4471,-0.4471,-0.447,-0.4468,-0.4467,-0.4476,-0.4476,-0.4476,-0.4476,0,-0.4535,-0.453,-0.4527,-0.452,-0.4517,-0.4511,-0.4508,-0.4504,-0.4503,-0.45,-0.4493,-0.4488,-0.4482,-0.448,-0.4478,-0.4472,-0.4472,-0.4472,-0.4473,-0.4469,-0.4468,-0.4467,-0.4476,-0.4476,-0.4476,-0.4476,0,0,-0.4529,-0.4522,-0.4521,-0.4518,-0.4512,-0.4508,-0.4503,-0.4497,-0.4494,-0.449,-0.4485,-0.4477,-0.4478,-0.4474,-0.4472,-0.4468,-0.4464,-0.4469,-0.4469,-0.4468,-0.4457,-0.4457,-0.4456,-0.4464,-0.4463,-0.4463,-0.4458,0,-0.4523,-0.4514,-0.4512,-0.4504,-0.4499,-0.4498,-0.4494,-0.4489,-0.4487,-0.4482,-0.4479,-0.4474,-0.4474,-0.4472,-0.4469,-0.4465,-0.4462,-0.4466,-0.4459,-0.4459,-0.4461,-0.4455,-0.4455,-0.445,-0.4457,-0.4457,-0.4457,0,-0.4515,-0.4511,-0.4502,-0.4498,-0.4495,-0.4491,-0.4486,-0.4482,-0.4477,-0.4476,-0.4472,-0.447,-0.4465,-0.4467,-0.4459,-0.4462,-0.4459,-0.4457,-0.4457,-0.4456,-0.4457,-0.4454,-0.4448,-0.4448,-0.4455,-0.4456,-0.4456,0,-0.4512,-0.4504,-0.4498,-0.4495,-0.449,-0.4487,-0.4484,-0.448,-0.4477,-0.4472,-0.447,-0.4465,-0.4462,-0.4458,-0.4455,-0.4456,-0.4448,-0.4449,-0.4446,-0.4446,-0.4444,-0.4444,-0.4438,-0.4443,-0.4443,-0.4443,-0.4443,0,-0.4505,-0.45,-0.4496,-0.4493,-0.4487,-0.4485,-0.4479,-0.4477,-0.4473,-0.4469,-0.4467,-0.4463,-0.446,-0.4455,-0.4453,-0.4447,-0.4446,-0.4444,-0.4444,-0.4444,-0.4445,-0.4442,-0.4443,-0.4443,-0.4443,-0.4443,-0.4443,0,-0.45,-0.4497,-0.4491,-0.4486,-0.4485,-0.4481,-0.4477,-0.4473,-0.4471,-0.4466,-0.4464,-0.4461,-0.4455,-0.4452,-0.4446,-0.4444,-0.4438,-0.4437,-0.4439,-0.4439,-0.4436,-0.4437,-0.4428,-0.4427,-0.4433,-0.4433,-0.4433,0,-0.4496,-0.4492,-0.4487,-0.4484,-0.4482,-0.4477,-0.4474,-0.4472,-0.4469,-0.4464,-0.4461,-0.4456,-0.4452,-0.4444,-0.444,-0.4435,-0.4434,-0.4432,-0.4434,-0.4435,-0.4434,-0.4435,-0.4434,-0.4431,-0.4431,-0.4431,-0.4431,0,-0.4489,-0.4488,-0.4483,-0.4479,-0.4476,-0.4472,-0.4468,-0.4466,-0.4463,-0.446,-0.4455,-0.4451,-0.4445,-0.444,-0.4435,-0.4432,-0.4431,-0.4431,-0.443,-0.443,-0.4432,-0.4431,-0.4439,-0.4431,-0.4431,-0.4431,-0.4431,-0.4431,-0.4484,-0.4481,-0.4477,-0.4472,-0.4469,-0.4466,-0.4463,-0.446,-0.4456,-0.4451,-0.445,-0.4445,-0.444,-0.4434,-0.4431,-0.4427,-0.4427,-0.4426,-0.4425,-0.4425,-0.4425,-0.4433,-0.4426,-0.4426,-0.4426,-0.4426,-0.4426,0,-0.4477,-0.4474,-0.447,-0.4465,-0.4462,-0.4462,-0.4458,-0.4455,-0.4451,-0.4447,-0.4443,-0.4438,-0.4433,-0.4429,-0.4425,-0.4422,-0.4422,-0.4421,-0.4421,-0.442,-0.4425,-0.4426,-0.4421,-0.4421,-0.4421,-0.4421,-0.4421,-0.4421,-0.4472,-0.4467,-0.4466,-0.4459,-0.4457,-0.4452,-0.445,-0.4447,-0.4444,-0.4438,-0.4434,-0.4432,-0.4429,-0.4424,-0.4419,-0.4419,-0.4417,-0.4416,-0.4415,-0.442,-0.442,-0.442,-0.4422,-0.4416,-0.4416,-0.4411,-0.4411,-0.4411]}]]